This is the latest recevied weather packets stored in our database for station/object ED5YAL-15. If no packets are shown the sender has not sent any weather packets the latest 10 day(s).
| Time | Temp. | Humidity | Pressure | Rain* | Wind** | Luminosity | Snow |
|---|---|---|---|---|---|---|---|
| 1777911397 | 20.56° C | 57% | 1016 hPa | - | - | - | - |
| 1777910496 | 20° C | 58% | 1015.9 hPa | - | - | - | - |
| 1777909596 | 21.67° C | 57% | 1016 hPa | - | - | - | - |
| 1777908695 | 21.67° C | 57% | 1016 hPa | - | - | - | - |
| 1777907794 | 21.67° C | 58% | 1016 hPa | - | - | - | - |
| 1777906893 | 21.67° C | 58% | 1015.7 hPa | - | - | - | - |
| 1777905992 | 21.67° C | 58% | 1016.1 hPa | - | - | - | - |
| 1777905092 | 21.67° C | 59% | 1016.3 hPa | - | - | - | - |
| 1777904191 | 22.22° C | 59% | 1015.9 hPa | - | - | - | - |
| 1777903309 | 20.56° C | 59% | 1016.1 hPa | - | - | - | - |
| 1777902472 | 20.56° C | 59% | 1016.3 hPa | - | - | - | - |
| 1777902408 | 20.56° C | 59% | 1016.3 hPa | - | - | - | - |
| 1777901507 | 25° C | 57% | 1016.2 hPa | - | - | - | - |
| 1777900607 | 25° C | 58% | 1016.2 hPa | - | - | - | - |
| 1777899706 | 26.11° C | 57% | 1016.4 hPa | - | - | - | - |
| 1777898805 | 22.78° C | 61% | 1016.6 hPa | - | - | - | - |
| 1777897904 | 18.89° C | 59% | 1016.6 hPa | - | - | - | - |
| 1777897003 | 19.44° C | 60% | 1016.7 hPa | - | - | - | - |
| 1777896102 | 18.89° C | 60% | 1016.6 hPa | - | - | - | - |
| 1777895202 | 19.44° C | 59% | 1016.8 hPa | - | - | - | - |
| 1777894301 | 18.89° C | 61% | 1016.7 hPa | - | - | - | - |
| 1777893400 | 17.78° C | 60% | 1017 hPa | - | - | - | - |
| 1777892499 | 17.22° C | 61% | 1017.1 hPa | - | - | - | - |
| 1777891598 | 16.67° C | 61% | 1017.4 hPa | - | - | - | - |
| 1777890698 | 15.56° C | 62% | 1017.2 hPa | - | - | - | - |
* Rain since midnight (hover to see other rain measurements)
** Current wind speed in m/s (hover to see current wind gust speed)